Regional Weather Roundup
Issued by NWS

Home | Current Version | Previous Version | Text Only | Print | Product List | Glossary Off
Versions: 1 2 3 4 5 6 7 8 9 10 11 12 13 14 15 16 17 18 19 20 21 22 23 24 25 26 27

000
ASUS45 KBOU 212207
RWRCO

WEATHER ROUNDUP FOR COLORADO
NATIONAL WEATHER SERVICE DENVER/BOULDER CO
400 PM MDT THU SEP 21 2017

NOTE: "FAIR" INDICATES FEW OR NO CLOUDS BELOW 12000 FEET WITH NO
SIGNIFICANT WEATHER AND/OR OBSTRUCTIONS TO VISIBILITY.

COZ001>005-013-030-031-212300-
...NORTHWEST COLORADO...

CITY           SKY/WX    TMP DP  RH WIND       PRES   REMARKS
CRAIG          FAIR      79  14   8 SW29G40   29.75F
HAYDEN         FAIR      78  17  10 SW28G36   29.77F
MEEKER         FAIR      77  19  11 S29G37    29.77F
RABBIT EARS PA FAIR      59  23  25 S10G25    30.08S
STEAMBOAT SPGS FAIR      77  18  11 S13G26    29.80S
WALDEN         FAIR      70  14  11 S24G30    29.91F
$$

COZ006>008-011-212300-
...WEST CENTRAL VALLEYS...

CITY           SKY/WX    TMP DP  RH WIND       PRES   REMARKS
GRAND JUNCTION FAIR      85  19   9 S24G36    29.70F
MONTROSE       FAIR      81  24  12 SW16G26   29.80F
EAGLE          FAIR      79  21  11 W29       29.81F
RIFLE          FAIR      83  17   8 S16G35    29.74F
DELTA          FAIR      86  22   9 SW20G28   29.76F
NUCLA          FAIR      79  18  10 S24G40    29.86F
$$

COZ017>023-064>068-212300-
...SOUTHWEST COLORADO...

CITY           SKY/WX    TMP DP  RH WIND       PRES   REMARKS
DURANGO        FAIR      76  25  15 S10G24    29.96F
CORTEZ         FAIR      81  17   9 SW22G33   29.87F
PAGOSA SPRINGS FAIR      73  18  12 SW15G26   30.05F
TELLURIDE      FAIR      65  20  17 S10G26    30.07F
WOLF CREEK PAS FAIR      48  23  37 SW24G43   30.30F
$$

COZ009-010-012-014-032>034-037-058>063-212300-
...CENTRAL COLORADO...

CITY           SKY/WX    TMP DP  RH WIND       PRES   REMARKS
ASPEN          FAIR      77  17  10 S13G18    29.88F
BUENA VISTA    FAIR      76  12   8 S12G23    29.92F
COPPER MTN     FAIR      59   5  11 S25G33    30.21F
BERTHOUD PASS  FAIR      52  43  71 W14G30    30.25F
COTTONWOOD PAS FAIR      72   5   7 SW10G28   30.07F
GUNNISON       FAIR      75  22  13 SW13G25   29.91F
KREMMLING      FAIR      82   7   5 W13G22    29.86F
LEADVILLE      FAIR      65  10  11 SW12G29   30.05F
MONARCH PASS   FAIR      57  18  21 SW35G45   30.33F
SALIDA         FAIR      79  13   8 SW23G32   29.98S
SUNLIGHT       FAIR      59  21  23 S22G36    30.12F
WILKERSON PASS FAIR      59  16  18 S9G20     30.21R
$$

COZ069>075-212300-
...SAN LUIS VALLEY/SANGRE DE CRISTO MOUNTAINS...

CITY           SKY/WX    TMP DP  RH WIND       PRES   REMARKS
ALAMOSA        FAIR      75  22  13 SW16G29   30.00F
DEL NORTE      FAIR      72  28  19 SW17G29   30.03F
LA VETA PASS   FAIR      64  25  22 MISG      30.26F
SAGUACHE       FAIR      72  27  18 SW17G28   30.00S
$$

COZ035-036-038>040-212300-
...NORTHERN COLORADO FRONT RANGE...

CITY           SKY/WX    TMP DP  RH WIND       PRES   REMARKS
DENVER INTL AP FAIR      90  21   8 S14G20    29.68F
DMNS CITY PARK   N/A     88  25  10 SE7G17    29.65F
AURORA         MOSUNNY   88  20   8 S21G28    29.70F
FRONT RANGE AP NOT AVBL
ERIE MUNI ARPT FAIR      90  18   7 NE8       29.70F
BOULDER MUN AP FAIR      88  28  11 N10       29.67F
CENTENNIAL     FAIR      86  21   9 S22G32    29.71F
BROOMFIELD     MOSUNNY   90  25   9 N10       29.70F
FORT COLLINS   FAIR      89  25  10 SE13      29.68F
LONGMONT       FAIR      91  28  10 NE8       29.68F
$$

COZ041-046-047-076>085-087-088-212300-
...PIKES PEAK/PALMER DIVIDE AND SOUTHERN FOOTHILLS...

CITY           SKY/WX    TMP DP  RH WIND       PRES   REMARKS
COLO. SPRINGS  FAIR      84  25  11 S15G30    29.82F
A. F. ACADEMY  FAIR      82  19   9 SE18      29.82F
SCHRIEVER AFB  FAIR      82  22  11 S12       29.83F
CHEYENNE MTN   FAIR      77  23  13 SE16G24   29.82S
ELLICOTT         N/A    N/A N/A N/A SW15G21   29.81F
FALCON         FAIR      80  21  11 S20G33    29.88S
FORT CARSON    FAIR      85  23  10 S21       29.78F
LIMON          FAIR      87  23   9 S18G24    29.76F
MONUMENT HILL  FAIR      79  23  12 SW12G23   29.87F
CANON CITY     SUNNY     88  28  11 N5        29.75F
WALSENBURG     FAIR      86  27  11 W26G40    29.84F
TRINIDAD       FAIR      87  29  12 SW20G25   29.82F
$$

COZ042>045-048>051-090-091-212300-
...NORTHEAST COLORADO...

CITY           SKY/WX    TMP DP  RH WIND       PRES   REMARKS
GREELEY ARPT   FAIR      89  27  10 E7        29.66F
AKRON          FAIR      92  21   7 S16G26    29.68F
BURLINGTON     FAIR      93  29  10 S23       29.70F
WRAY           FAIR      97  25   7 S21G31    29.64F
YUMA           FAIR      90  27  10 S10G16    29.66F
STERLING       FAIR      91  37  15 E9        29.62F
HOLYOKE        NOT AVBL
FORT MORGAN    FAIR      93  21   7 E5        29.66F
$$

COZ086-089-092>099-212300-
...SOUTHEAST COLORADO...

CITY           SKY/WX    TMP DP  RH WIND       PRES   REMARKS
PUEBLO         FAIR      92  23   8 SW15G25   29.69F
LA JUNTA       FAIR      95  28   9 SW13G21   29.69F
LAMAR          FAIR      96  28   9 SW21G31   29.66F
SPRINGFIELD      N/A     89  34  14 S25G39    29.78S
$$




USA.gov is the U.S. government's official web portal to all federal, state and local government web resources and services.